, AK

(GMT )
Annette Island

Weather History for PANT - January, 2014

Change the Weather History Date:

Thursday, January 16, 2014

  Actual Average Record
Temperature  
Mean Temperature 42 °F 37 °F  
Max Temperature 43 °F 42 °F 57 °F (1981)
Min Temperature 41 °F 32 °F 4 °F (2012)
Degree Days  
Heating Degree Days 23 28  
Month to date heating degree days 434 448  
Since 1 July heating degree days 3147 3359  
Cooling Degree Days 0    
Month to date cooling degree days 0  
Year to date cooling degree days 0  
Moisture  
Dew Point 42 °F    
Average Humidity 0    
Maximum Humidity 0    
Minimum Humidity 0    
Precipitation  
Precipitation 0.16 in 0.36 in 2.53 in (1976)
Month to date precipitation 6.33 5.61  
Year to date precipitation 6.33 5.61  
Snow  
Snow 0.00 in 0.30 in 8.00 in (1952)
Month to date snowfall 1.0 4.1  
Since 1 July snowfall 10.1 15.8  
Snow Depth 0.00 in    
Sea Level Pressure  
Sea Level Pressure 30.29 in    
Wind  
Wind Speed 13 mph (SE)    
Max Wind Speed 20 mph    
Max Gust Speed 29 mph    
Visibility 9 miles    
Events Rain    
T = Trace of Precipitation, MM = Missing Value Source: NWS Daily Summary

Daily Weather History Graph

Daily Weather History Graph

Search for Another Location

Airport or City:

Trip Planner

Search our weather history database for the weather conditions in past years. The results will help you decide how hot, cold, wet, or windy it might be!

Date:

Astronomy

Jan. 16, 2014 Rise Set
Actual Time 8:00 AM AKST 3:51 PM AKST
Civil Twilight 7:17 AM AKST 4:34 PM AKST
Nautical Twilight 6:32 AM AKST 5:20 PM AKST
Astronomical Twilight 5:48 AM AKST 6:04 PM AKST
Moon 5:08 PM AKST (1/16) 7:42 AM AKST (1/16)
Length of Visible Light 9h 16m
Length of Day
7h 51m
Full, 100% of the Moon is Illuminated
Jan 16
Full
Jan 23
Last Quarter
Jan 30
New
Feb 6
First Quarter
Feb 14
Full

Hourly Weather History & Observations

Time (AKST) Temp. Windchill Dew Point Humidity Pressure Visibility Wind Dir Wind Speed Gust Speed Precip Events Conditions
12:10 AM 42.1 °F 34.9 °F 42.1 °F 100% 30.33 in 8.0 mi SE 13.8 mph - 0.00 in Rain Light Rain
12:53 AM 42.1 °F 35.2 °F 42.1 °F 100% 30.33 in 4.0 mi ESE 12.7 mph 21.9 mph 0.03 in Rain Light Rain
1:53 AM 41.0 °F 33.5 °F 41.0 °F 100% 30.33 in 4.0 mi SE 13.8 mph - 0.02 in Rain Light Rain
2:53 AM 42.1 °F 35.7 °F 42.1 °F 100% 30.31 in 4.0 mi ESE 11.5 mph 21.9 mph 0.02 in Rain Light Rain
3:53 AM 42.1 °F 34.9 °F 42.1 °F 100% 30.31 in 5.0 mi SE 13.8 mph 21.9 mph 0.02 in Rain Light Rain
4:50 AM 42.8 °F 34.8 °F 42.8 °F 100% 30.31 in 3.0 mi SE 17.3 mph 26.5 mph 0.04 in Rain Light Rain
4:53 AM 43.0 °F 35.1 °F 43.0 °F 100% 30.31 in 3.0 mi SE 17.3 mph 26.5 mph 0.04 in Rain Light Rain
5:53 AM 43.0 °F 34.8 °F 43.0 °F 100% 30.29 in 10.0 mi SE 18.4 mph 27.6 mph 0.03 in Rain Light Rain
6:53 AM 43.0 °F 35.1 °F 43.0 °F 100% 30.29 in 7.0 mi SE 17.3 mph 26.5 mph 0.00 in Rain Light Rain
7:53 AM 43.0 °F 35.7 °F 43.0 °F 100% 30.30 in 10.0 mi SSE 15.0 mph 25.3 mph 0.00 in   Overcast
8:53 AM 43.0 °F 35.4 °F 43.0 °F 100% 30.30 in 10.0 mi SSE 16.1 mph 26.5 mph N/A   Overcast
9:10 AM 43.0 °F 35.7 °F 43.0 °F 100% 30.29 in 10.0 mi SSE 15.0 mph 23.0 mph N/A   Overcast
9:53 AM 42.1 °F 35.7 °F 42.1 °F 100% 30.31 in 10.0 mi SSE 11.5 mph 20.7 mph N/A   Overcast
10:11 AM 42.1 °F 35.7 °F 42.1 °F 100% 30.30 in 10.0 mi SSE 11.5 mph 23.0 mph N/A   Overcast
10:44 AM 43.0 °F 36.4 °F 43.0 °F 100% 30.29 in 10.0 mi SSE 12.7 mph 24.2 mph N/A   Overcast
10:53 AM 43.0 °F 36.4 °F 43.0 °F 100% 30.30 in 10.0 mi SSE 12.7 mph 24.2 mph N/A   Overcast
11:53 AM 42.1 °F 35.2 °F 42.1 °F 100% 30.29 in 10.0 mi SSE 12.7 mph 20.7 mph N/A   Overcast
12:04 PM 42.1 °F 35.2 °F 42.1 °F 100% 30.28 in 10.0 mi SSE 12.7 mph 19.6 mph N/A   Overcast
12:53 PM 42.1 °F 36.1 °F 42.1 °F 100% 30.29 in 10.0 mi SSE 10.4 mph 21.9 mph N/A   Overcast
1:53 PM 42.1 °F 35.7 °F 42.1 °F 100% 30.29 in 10.0 mi SSE 11.5 mph 21.9 mph N/A   Overcast
2:44 PM 42.1 °F 35.2 °F 42.1 °F 100% 30.28 in 10.0 mi SSE 12.7 mph 21.9 mph N/A   Overcast
2:53 PM 42.1 °F 35.2 °F 42.1 °F 100% 30.29 in 10.0 mi SSE 12.7 mph 21.9 mph N/A   Overcast
3:53 PM 42.1 °F 35.2 °F 42.1 °F 100% 30.29 in 10.0 mi SE 12.7 mph - N/A   Overcast
4:53 PM 42.1 °F 37.1 °F 42.1 °F 100% 30.30 in 10.0 mi SE 8.1 mph - 0.00 in Rain Light Rain
5:17 PM 41.0 °F 35.2 °F 41.0 °F 100% 30.29 in 7.0 mi SSE 9.2 mph - 0.02 in Rain Light Rain
5:36 PM 41.0 °F 35.8 °F 41.0 °F 100% 30.29 in 10.0 mi SE 8.1 mph - 0.02 in   Overcast
5:53 PM 41.0 °F 34.7 °F 41.0 °F 100% 30.29 in 10.0 mi SE 10.4 mph - 0.02 in   Overcast
6:11 PM 42.1 °F 37.1 °F 42.1 °F 100% 30.29 in 10.0 mi SE 8.1 mph - 0.00 in Rain Light Rain
6:19 PM 42.1 °F 36.6 °F 42.1 °F 100% 30.29 in 9.0 mi SSE 9.2 mph - 0.00 in Rain Light Rain
6:36 PM 42.1 °F 36.6 °F 42.1 °F 100% 30.29 in 8.0 mi SSE 9.2 mph - 0.01 in Rain Light Rain
6:53 PM 41.0 °F 34.7 °F 41.0 °F 100% 30.29 in 7.0 mi SSE 10.4 mph - 0.01 in Rain Light Rain
7:53 PM 41.0 °F 33.1 °F 41.0 °F 100% 30.27 in 8.0 mi SE 15.0 mph 21.9 mph 0.05 in Rain Light Rain
8:02 PM 41.0 °F 34.3 °F 41.0 °F 100% 30.26 in 10.0 mi SE 11.5 mph 21.9 mph 0.01 in Rain Light Rain
8:17 PM 41.0 °F 34.3 °F 41.0 °F 100% 30.26 in 8.0 mi SE 11.5 mph 19.6 mph 0.02 in Rain Light Rain
8:39 PM 41.0 °F 34.7 °F 41.0 °F 100% 30.26 in 9.0 mi SE 10.4 mph - 0.05 in Rain Light Rain
8:48 PM 41.0 °F 34.3 °F 41.0 °F 100% 30.26 in 9.0 mi SE 11.5 mph - 0.05 in Rain Light Rain
8:53 PM 41.0 °F 34.7 °F 41.0 °F 100% 30.27 in 9.0 mi SE 10.4 mph - 0.05 in Rain Light Rain
9:53 PM 41.0 °F 35.8 °F 41.0 °F 100% 30.27 in 10.0 mi SE 8.1 mph - 0.03 in Rain Light Rain
10:53 PM 41.0 °F 35.8 °F 41.0 °F 100% 30.26 in 10.0 mi ESE 8.1 mph - 0.00 in   Overcast
11:07 PM 41.0 °F 36.4 °F 41.0 °F 100% 30.25 in 10.0 mi SE 6.9 mph - N/A   Overcast
11:53 PM 41.0 °F 37.1 °F 41.0 °F 100% 30.27 in 10.0 mi SE 5.8 mph - N/A   Overcast